| time (UTC) | temp F | wind direction | speed MPH | gust MPH | rain 1hr in | rain 24hr in | rain mn in | humidity % | barometer mb |
| 20260503014124 | 68 | 319 | 0.0 | 2.0 | 0.00 | 0.00 | 0.00 | 75 | 1017.7 |
| 20260503012621 | 69 | 68 | 0.0 | 4.0 | 0.00 | 0.00 | 0.00 | 74 | 1017.4 |
| 20260503011124 | 69 | 321 | 1.0 | 4.0 | 0.00 | 0.00 | 0.00 | 73 | 1017.3 |
| 20260503005625 | 70 | 25 | 0.0 | 6.0 | 0.00 | 0.00 | 0.00 | 72 | 1017.4 |
| 20260503004122 | 70 | 348 | 0.0 | 9.0 | 0.00 | 0.00 | 0.00 | 72 | 1017.3 |
| 20260503002625 | 70 | 76 | 1.0 | 8.0 | 0.00 | 0.00 | 0.00 | 72 | 1017.2 |
| 20260503001142 | 71 | 346 | 2.0 | 6.0 | 0.00 | 0.00 | 0.00 | 74 | 1017.1 |
| 20260502235620 | 71 | 5 | 2.0 | 8.0 | 0.00 | 0.00 | 0.00 | 75 | 1017.0 |
| 20260502234122 | 71 | 333 | 2.0 | 12.0 | 0.00 | 0.00 | 0.00 | 75 | 1016.9 |
| 20260502232620 | 72 | 11 | 2.0 | 11.0 | 0.00 | 0.00 | 0.00 | 75 | 1016.7 |
| 20260502231140 | 72 | 48 | 3.0 | 9.0 | 0.00 | 0.00 | 0.00 | 74 | 1016.6 |
| 20260502225630 | 73 | 351 | 2.0 | 10.0 | 0.00 | 0.00 | 0.00 | 74 | 1016.6 |
| 20260502224124 | 73 | 165 | 2.0 | 9.0 | 0.00 | 0.00 | 0.00 | 73 | 1016.7 |
| 20260502222700 | 73 | 257 | 3.0 | 11.0 | 0.00 | 0.00 | 0.00 | 74 | 1016.5 |
| 20260502221126 | 72 | 5 | 2.0 | 10.0 | 0.00 | 0.00 | 0.00 | 74 | 1016.5 |
| 20260502215623 | 72 | 66 | 3.0 | 12.0 | 0.00 | 0.00 | 0.00 | 74 | 1016.5 |
| 20260502214136 | 72 | 344 | 3.0 | 9.0 | 0.00 | 0.00 | 0.00 | 76 | 1016.8 |
| 20260502212625 | 70 | 355 | 3.0 | 12.0 | 0.00 | 0.00 | 0.00 | 78 | 1016.8 |
| 20260502211140 | 70 | 20 | 2.0 | 8.0 | 0.00 | 0.00 | 0.00 | 76 | 1016.9 |
| 20260502205631 | 71 | 341 | 4.0 | 10.0 | 0.00 | 0.00 | 0.00 | 77 | 1017.1 |
| 20260502204123 | 71 | 343 | 3.0 | 9.0 | 0.00 | 0.00 | 0.00 | 76 | 1017.3 |
| 20260502202619 | 69 | 325 | 3.0 | 8.0 | 0.00 | 0.00 | 0.00 | 80 | 1017.3 |
| 20260502201132 | 68 | 300 | 3.0 | 8.0 | 0.00 | 0.00 | 0.00 | 80 | 1017.5 |
| 20260502195629 | 68 | 355 | 2.0 | 8.0 | 0.00 | 0.00 | 0.00 | 81 | 1017.6 |
| 20260502194118 | 69 | 331 | 3.0 | 10.0 | 0.00 | 0.00 | 0.00 | 81 | 1017.6 |
| 20260502192631 | 68 | 340 | 1.0 | 6.0 | 0.00 | 0.00 | 0.00 | 83 | 1017.6 |
| 20260502191128 | 67 | 348 | 2.0 | 11.0 | 0.00 | 0.00 | 0.00 | 84 | 1017.7 |
| 20260502185622 | 66 | 327 | 2.0 | 9.0 | 0.00 | 0.00 | 0.00 | 84 | 1017.9 |
| 20260502184119 | 66 | 360 | 3.0 | 10.0 | 0.00 | 0.00 | 0.00 | 84 | 1018.0 |
| 20260502182637 | 66 | 355 | 3.0 | 11.0 | 0.00 | 0.00 | 0.00 | 85 | 1017.9 |
| 20260502181143 | 65 | 345 | 3.0 | 16.0 | 0.00 | 0.00 | 0.00 | 85 | 1018.0 |
| 20260502164142 | 62 | 355 | 4.0 | 10.0 | 0.00 | 0.00 | 0.00 | 88 | 1018.4 |
| 20260502162626 | 62 | 318 | 4.0 | 9.0 | 0.00 | 0.00 | 0.00 | 89 | 1018.2 |
| 20260502161138 | 62 | 338 | 2.0 | 12.0 | 0.00 | 0.00 | 0.00 | 89 | 1018.3 |
| 20260502151126 | 61 | 325 | 3.0 | 11.0 | 0.00 | 0.00 | 0.00 | 90 | 1017.7 |